Location: Newark
(45.9456°N, 15.4064°E)
Time: 06:11:14
(UTC+00:00)

Transit 2A Rocket - Visible Passes

Search period start: 26 January 2020 00:00
Search period end: 05 February 2020 00:00
Orbit: 593 x 910 km, 66.7° (Epoch: 25 January)

Date Brightness Start Highest point End Pass type
(mag) Time Alt. Az. Time Alt. Az. Time Alt. Az.
26 Jan 6.1 03:32:17 33° E 03:32:17 33° E 03:35:46 10° NE visible
26 Jan 5.4 05:12:14 19° W 05:14:24 30° NW 05:18:16 10° NNE visible
27 Jan 7.4 02:51:37 14° ENE 02:51:37 14° ENE 02:52:36 10° ENE visible
27 Jan 4.6 04:31:34 49° WNW 04:31:41 49° NW 04:35:57 10° NNE visible
28 Jan 5.6 03:50:42 39° NNE 03:50:42 39° NNE 03:53:29 10° NNE visible
28 Jan 6.3 05:30:38 13° WNW 05:32:21 15° NW 05:34:58 10° N visible
29 Jan 7.0 03:09:41 18° NE 03:09:41 18° NE 03:10:51 10° NE visible
29 Jan 5.8 04:49:37 22° NW 04:49:37 22° NW 04:52:57 10° N visible
30 Jan 6.0 04:08:30 24° N 04:08:30 24° N 04:10:43 10° NNE visible
31 Jan 6.9 03:27:17 17° NNE 03:27:17 17° NNE 03:28:21 10° NNE visible
31 Jan 6.5 05:07:12 12° NW 05:07:32 12° NNW 05:09:19 10° N visible
01 Feb 6.5 04:25:55 15° NNW 04:25:55 15° NNW 04:27:33 10° N visible
02 Feb 6.9 03:44:36 14° N 03:44:36 14° N 03:45:26 10° NNE visible
04 Feb 7.0 04:01:44 11° N 04:01:44 11° N 04:02:01 10° N visible
